Powrót do katalogu

STARLINK-35796

AktywnyŁącznośćVLEO
NORAD 66541·PAYLOAD·🇺🇸 United States

Wystrzelony Nov 19, 2025 z Cape Canaveral Space Force Station

Loading…

Następne Przeloty (najbliższe 24 godziny)

TLE

ŚwieżeSource: CelesTrak SupGP

Epoka: Sep 14, 2026, 21:06 UTC

1 66541C 25265AB  26257.87965278  .00000210  00000+0  76188-5 0  2570
2 66541  43.0006 289.5998 0001312 264.9990 190.7012 15.27571566    19

Śledź STARLINK-35796 w czasie rzeczywistym z AllMySat

Download on the App Store